Location: *
(2.5500°S, 65.9667°W)
Time: 06:35:01
(UTC+00:00)

Tiros 1 despin weight - Pass Details

Date: 18 April 2024
Orbit: 578 x 621 km, 48.2° (Epoch: 25 May)

Event Time Altitude Azimuth Distance (km) Brightness Sun altitude
Rises 14:05:28 0° 210° (SSW) 2,787 ? 53.1°
Reaches altitude 10° 14:07:47 10° 205° (SSW) 1,888 ? 53.7°
Maximum altitude 14:11:58 50° 129° (SE) 742 ? 54.6°
Drops below altitude 10° 14:16:11 10° 54° (NE) 1,896 ? 55.6°
Sets 14:18:30 0° 48° (NE) 2,800 ? 56.1°
